Previsão horária em Barnsley

Hoje, 25 Outubro, Domingo

Tempo Temperatura Precipitação Vento Pressão Humidade
00:00 +7°C° 0.3 mm 4 m/s 732 mmHg 85%
01:00 +7°C° 0.6 mm 4 m/s 732 mmHg 84%
02:00 +7°C° 0.6 mm 5 m/s 733 mmHg 84%
03:00 +7°C° 0.6 mm 5 m/s 733 mmHg 83%
04:00 +7°C° 0 mm 5 m/s 733 mmHg 82%
05:00 +6°C° 0 mm 5 m/s 733 mmHg 82%
06:00 +5°C° 0 mm 6 m/s 733 mmHg 81%
07:00 +7°C° 0 mm 6 m/s 733 mmHg 79%
08:00 +7°C° 0 mm 6 m/s 733 mmHg 78%
09:00 +8°C° 0 mm 7 m/s 733 mmHg 76%
10:00 +8°C° 0 mm 7 m/s 733 mmHg 73%
11:00 +9°C° 0 mm 7 m/s 733 mmHg 71%
12:00 +10°C° 0 mm 7 m/s 733 mmHg 68%
13:00 +10°C° 0 mm 7 m/s 733 mmHg 68%
14:00 +10°C° 0 mm 6 m/s 733 mmHg 67%
15:00 +10°C° 0 mm 6 m/s 733 mmHg 67%
16:00 +9°C° 0.1 mm 5 m/s 733 mmHg 71%
17:00 +8°C° 0.1 mm 5 m/s 733 mmHg 74%
18:00 +7°C° 0.1 mm 5 m/s 734 mmHg 77%
19:00 +7°C° 0 mm 5 m/s 734 mmHg 78%
20:00 +7°C° 0 mm 5 m/s 734 mmHg 79%
21:00 +6°C° 0 mm 5 m/s 734 mmHg 80%
22:00 +6°C° 0 mm 5 m/s 733 mmHg 80%
23:00 +6°C° 0 mm 5 m/s 733 mmHg 80%

Amanhã, 26 Outubro, Segunda-feira

Tempo Temperatura Precipitação Vento Pressão Humidade
00:00 +6°C° 0 mm 5 m/s 733 mmHg 80%
01:00 +6°C° 0 mm 5 m/s 733 mmHg 81%
02:00 +6°C° 0 mm 5 m/s 733 mmHg 82%
03:00 +6°C° 0 mm 5 m/s 733 mmHg 83%
04:00 +6°C° 0 mm 5 m/s 733 mmHg 84%
05:00 +6°C° 0 mm 4 m/s 733 mmHg 85%
06:00 +6°C° 0 mm 4 m/s 733 mmHg 86%
07:00 +6°C° 0 mm 4 m/s 733 mmHg 85%
08:00 +7°C° 0 mm 4 m/s 732 mmHg 84%
09:00 +7°C° 0 mm 5 m/s 732 mmHg 83%
10:00 +8°C° 0.5 mm 4 m/s 732 mmHg 83%
11:00 +8°C° 0.5 mm 4 m/s 732 mmHg 83%
12:00 +8°C° 0.5 mm 4 m/s 732 mmHg 83%
13:00 +8°C° 0.1 mm 4 m/s 732 mmHg 80%
14:00 +9°C° 0.1 mm 5 m/s 732 mmHg 76%
15:00 +9°C° 0.1 mm 5 m/s 732 mmHg 73%
16:00 +8°C° 0 mm 5 m/s 733 mmHg 75%
17:00 +8°C° 0 mm 5 m/s 733 mmHg 77%
18:00 +7°C° 0 mm 5 m/s 734 mmHg 78%
19:00 +7°C° 0 mm 5 m/s 734 mmHg 79%
20:00 +7°C° 0 mm 5 m/s 734 mmHg 80%
21:00 +7°C° 0 mm 5 m/s 735 mmHg 81%
22:00 +7°C° 0.1 mm 5 m/s 735 mmHg 81%
23:00 +8°C° 0.1 mm 5 m/s 735 mmHg 81%

Depois de amanhã, 27 Outubro, Terça-feira

Tempo Temperatura Precipitação Vento Pressão Humidade
00:00 +8°C° 0.1 mm 6 m/s 735 mmHg 81%
01:00 +8°C° 0 mm 5 m/s 735 mmHg 82%
02:00 +7°C° 0 mm 5 m/s 735 mmHg 83%
03:00 +7°C° 0 mm 5 m/s 735 mmHg 84%
04:00 +7°C° 0 mm 5 m/s 736 mmHg 84%
05:00 +7°C° 0 mm 5 m/s 736 mmHg 84%
06:00 +6°C° 0 mm 4 m/s 736 mmHg 84%
07:00 +7°C° 0 mm 4 m/s 736 mmHg 82%
08:00 +7°C° 0 mm 4 m/s 736 mmHg 80%
09:00 +7°C° 0 mm 4 m/s 735 mmHg 77%
10:00 +7°C° 0.1 mm 4 m/s 735 mmHg 78%
11:00 +8°C° 0.1 mm 5 m/s 734 mmHg 79%
12:00 +8°C° 0.1 mm 5 m/s 733 mmHg 80%
13:00 +8°C° 0.9 mm 6 m/s 732 mmHg 84%
14:00 +9°C° 0.9 mm 6 m/s 731 mmHg 87%
15:00 +9°C° 0.9 mm 6 m/s 731 mmHg 91%
16:00 +8°C° 0.8 mm 6 m/s 730 mmHg 85%
17:00 +8°C° 0.8 mm 6 m/s 730 mmHg 80%
18:00 +7°C° 0.8 mm 6 m/s 730 mmHg 75%
19:00 +7°C° 0 mm 6 m/s 731 mmHg 75%
20:00 +5°C° 0 mm 6 m/s 732 mmHg 76%
21:00 +6°C° 0 mm 5 m/s 732 mmHg 77%
22:00 +5°C° 0 mm 6 m/s 732 mmHg 78%
23:00 +5°C° 0 mm 6 m/s 733 mmHg 79%

28 Outubro, Quarta-feira

Tempo Temperatura Precipitação Vento Pressão Humidade
00:00 +5°C° 0 mm 6 m/s 733 mmHg 79%
01:00 +5°C° 0 mm 6 m/s 732 mmHg 80%
02:00 +5°C° 0 mm 6 m/s 732 mmHg 81%
03:00 +5°C° 0 mm 6 m/s 731 mmHg 81%
04:00 +5°C° 0 mm 7 m/s 731 mmHg 81%
05:00 +6°C° 0 mm 7 m/s 730 mmHg 81%
06:00 +6°C° 0 mm 7 m/s 730 mmHg 82%
07:00 +6°C° 0.1 mm 7 m/s 730 mmHg 81%
08:00 +8°C° 0.1 mm 7 m/s 730 mmHg 81%
09:00 +7°C° 0.1 mm 8 m/s 729 mmHg 80%
10:00 +7°C° 0.2 mm 8 m/s 729 mmHg 77%
11:00 +8°C° 0.2 mm 9 m/s 729 mmHg 74%
12:00 +8°C° 0.2 mm 9 m/s 729 mmHg 70%
13:00 +8°C° 0.1 mm 9 m/s 729 mmHg 70%
14:00 +8°C° 0.1 mm 9 m/s 728 mmHg 70%
15:00 +8°C° 0.1 mm 9 m/s 728 mmHg 70%
16:00 +8°C° 0.7 mm 9 m/s 728 mmHg 74%
17:00 +7°C° 0.7 mm 10 m/s 727 mmHg 78%
18:00 +7°C° 0.7 mm 10 m/s 727 mmHg 82%
19:00 +8°C° 0.2 mm 10 m/s 727 mmHg 79%
20:00 +8°C° 0.2 mm 10 m/s 728 mmHg 76%
21:00 +9°C° 0.2 mm 10 m/s 728 mmHg 73%
22:00 +8°C° 0.1 mm 10 m/s 729 mmHg 73%
23:00 +8°C° 0.1 mm 10 m/s 730 mmHg 74%

29 Outubro, Quinta-feira

Tempo Temperatura Precipitação Vento Pressão Humidade
00:00 +8°C° 0.1 mm 10 m/s 731 mmHg 74%
01:00 +8°C° 0.1 mm 10 m/s 732 mmHg 73%
02:00 +8°C° 0.1 mm 10 m/s 733 mmHg 71%
03:00 +8°C° 0.1 mm 10 m/s 735 mmHg 69%
04:00 +7°C° 0 mm 9 m/s 735 mmHg 70%
05:00 +7°C° 0 mm 8 m/s 736 mmHg 71%
06:00 +7°C° 0 mm 8 m/s 737 mmHg 71%
07:00 +7°C° 0.2 mm 8 m/s 736 mmHg 76%
08:00 +9°C° 0.2 mm 8 m/s 735 mmHg 80%
09:00 +10°C° 0.2 mm 9 m/s 735 mmHg 85%
10:00 +11°C° 0.7 mm 9 m/s 735 mmHg 85%
11:00 +11°C° 0.7 mm 9 m/s 734 mmHg 85%
12:00 +12°C° 0.7 mm 9 m/s 734 mmHg 86%
13:00 +12°C° 1.2 mm 9 m/s 734 mmHg 85%
14:00 +12°C° 1.2 mm 8 m/s 734 mmHg 84%
15:00 +13°C° 1.2 mm 8 m/s 734 mmHg 83%
16:00 +12°C° 0.2 mm 8 m/s 735 mmHg 81%
17:00 +11°C° 0.2 mm 8 m/s 736 mmHg 78%
18:00 +11°C° 0.2 mm 8 m/s 736 mmHg 76%
19:00 +10°C° 0 mm 8 m/s 737 mmHg 75%
20:00 +10°C° 0 mm 7 m/s 737 mmHg 74%
21:00 +10°C° 0 mm 7 m/s 738 mmHg 73%
22:00 +9°C° 0.4 mm 7 m/s 739 mmHg 75%
23:00 +9°C° 0.4 mm 8 m/s 739 mmHg 77%

30 Outubro, Sexta-feira

Tempo Temperatura Precipitação Vento Pressão Humidade
00:00 +7°C° 0.4 mm 8 m/s 739 mmHg 79%
01:00 +8°C° 0.3 mm 7 m/s 740 mmHg 78%
02:00 +8°C° 0.3 mm 6 m/s 740 mmHg 78%
03:00 +7°C° 0.3 mm 5 m/s 740 mmHg 78%
04:00 +7°C° 0.1 mm 5 m/s 741 mmHg 77%
05:00 +7°C° 0.1 mm 5 m/s 741 mmHg 76%
06:00 +7°C° 0.1 mm 4 m/s 741 mmHg 75%
07:00 +7°C° 0 mm 4 m/s 742 mmHg 75%
08:00 +8°C° 0 mm 3 m/s 742 mmHg 74%
09:00 +9°C° 0 mm 3 m/s 743 mmHg 74%
10:00 +9°C° 0 mm 3 m/s 743 mmHg 70%
11:00 +10°C° 0 mm 2 m/s 744 mmHg 67%
12:00 +10°C° 0 mm 2 m/s 744 mmHg 63%
13:00 +10°C° 0.1 mm 2 m/s 744 mmHg 66%
14:00 +9°C° 0.1 mm 2 m/s 744 mmHg 69%
15:00 +9°C° 0.1 mm 2 m/s 743 mmHg 72%
16:00 +8°C° 0.7 mm 2 m/s 743 mmHg 77%
17:00 +8°C° 0.7 mm 2 m/s 742 mmHg 82%
18:00 +7°C° 0.7 mm 2 m/s 742 mmHg 86%
19:00 +7°C° 2.4 mm 3 m/s 741 mmHg 88%
20:00 +7°C° 2.4 mm 3 m/s 741 mmHg 90%
21:00 +5°C° 2.4 mm 4 m/s 740 mmHg 92%
22:00 +5°C° 3.2 mm 4 m/s 739 mmHg 93%
23:00 +5°C° 3.2 mm 4 m/s 738 mmHg 93%
Mostrar mais